Boynton Beach, FL

4:53 AM EDT on September 05, 2015 (GMT -0400)
Princeton Place | | Change Station
CLOSE
Current Station
Personal Weather Station
Location: Boynton Beach, FL
Elevation: 36 ft
Nearby Weather Stations

Elev 36 ft 26.55 °N, 80.12 °W | Updated 5 seconds ago

Mostly Cloudy
Mostly Cloudy
77.5 °F
Feels Like 79 °F
N
0.0
Wind Variable Wind from NW
Gusts 0.7 mph

Today
High -- | Low -- °F
--% Chance of Precip.
Yesterday
High -- | Low -- °F
Precip. -- in
7:01 AM 7:36 PM
Waning Gibbous, 50% visible
Pressure 29.95 in
Visibility 10.0 miles
Clouds Mostly Cloudy 25000 ft
Heat Index 79 °F
Dew Point 77 °F
Humidity 99%
Rainfall 0.00 in
Snow Depth Not available.
UV 0 out of 12
Pollen 3.60 out of 12
Air Quality Not available.
Flu Activity Not available.
METAR KPBI 050753Z 34006KT 10SM BKN250 25/23 A2995 RMK AO2 SLP140 T02500233
Pressure 29.95 in
Visibility 10.0 miles
Clouds Mostly Cloudy 25000 ft
Heat Index 79 °F
Dew Point 77 °F
Humidity 99%
Rainfall 0.00 in
Snow Depth Not available.
UV 0 out of 12
Pollen 3.60 out of 12
Air Quality Not available.
Flu Activity Not available.
METAR KPBI 050753Z 34006KT 10SM BKN250 25/23 A2995 RMK AO2 SLP140 T02500233

10-Day Weather Forecast

×

Almanac

Astronomy

Sep. 05, 2015 Rise Set
Actual Time
Civil Twilight
Nautical Twilight
Astronomical Twilight
Moon
Length of Visible Light
Length of Day
Tomorrow will be .
, % of the Moon is Illuminated

Today's Extremes

State Highs State Lows

Community

WunderPhotos

Upload Photos

1,852,440 photos uploaded!

WunderBlogs® & News

Nearby

Air Quality

  Air Quality AQ Index Pollutant
Not available.

Snow Depth

Station Depth Elevation

Earthquake Activity

City Distance Mag. Time & Date
Minimum magnitude displayed is 2.5.

Coastal Water Temperatures

Place Temperature

Stations

Nearby Weather Stations

Station Location Temp. Windchill Dew Point Humidity Wind Precip. Elev Updated Type